Regional Weather Roundup
Issued by NWS

Home | Current Version | Previous Version | Text Only | Print | Product List | Glossary On
Versions: 1 2 3 4 5 6 7 8 9 10 11 12 13 14 15 16 17 18 19 20 21 22 23 24 25 26 27 28 29 30 31 32 33 34 35 36 37 38 39 40 41 42 43 44 45 46 47 48 49 50
000
ASUS42 KTBW 041316
RWRFL
FLORIDA REGIONAL WEATHER ROUNDUP
NATIONAL WEATHER SERVICE TAMPA BAY RUSKIN FL
800 AM EST SUN DEC 04 2016

NOTE: "FAIR" INDICATES FEW OR NO CLOUDS BELOW 12,000 FEET WITH NO
SIGNIFICANT WEATHER AND/OR OBSTRUCTIONS TO VISIBILITY.

FLZ001>010-012>015-112-114-115-041400-
PANHANDLE FLORIDA

CITY           SKY/WX    TMP DP  RH WIND       PRES   REMARKS
PENSACOLA      CLOUDY    63  58  83 E7        29.96S
PENSACOLA NAS  CLOUDY    73  68  84 SE13      29.94F
MILTON NAS     LGT RAIN  59  52  77 SE7       29.97
CRESTVIEW      CLOUDY    60  52  74 VRB3      30.01F
DUKE FIELD     CLOUDY    61  54  78 SE6       29.98F
VALPARAISO     DRIZZLE   61  55  80 E12       29.98F
MARY ESTHER    CLOUDY    63  57  82 E10       29.96
TRI COUNTY     CLOUDY    58  52  80 E5        30.04S
PANAMA CITY    CLOUDY    58  52  80 E9        30.01S
TYNDALL AFB    CLOUDY    58  54  88 E6        30.02S
APALACHICOLA   CLOUDY    68  64  87 SE12      30.03R

STATION/POSITION SKY/WX   TEMP    WIND        PRES    WAVE   SWELL
                          AIR SEA DIR/SP/G            HT/PER HT/PER
                          (F)     (DEG/KT/KT) (MB)    (FT/S) (FT/S)
30.1N   87.6W              73 69  140/ 19/ 23 1012.9F   8/ 7   2/11
29.2N   88.2W              76 76  160/ 19/ 25 1012.5R   8/ 7   2/13
28.8N   86.0W              74 75              1014.4    6/ 6
PANAMA CITY BEAC           59 65   80/  9/ 12 1016.4S
TOWER C                    69     150/ 24/ 28 1016.6R
28.5N   84.5W              73 74  140/ 21/ 25 1015.9R   7/ 6   2/11

$$
FLZ011-016>038-118-127-128-134-139-239-041400-
NORTH FLORIDA

CITY           SKY/WX    TMP DP  RH WIND       PRES   REMARKS
MARIANNA       CLOUDY    58  53  84 E5        30.05R
TALLAHASSEE    CLOUDY    59  54  83 SE6       30.06R
PERRY          PTCLDY    60  55  82 SE6       30.07R
CROSS CITY     CLEAR     57  54  88 SE3       30.07S
LAKE CITY      FAIR      55  55 100 E3        30.08R
GAINESVILLE    CLEAR     56  54  93 E3        30.08S
WILLISTON      CLEAR     61  57  88 CALM      30.08S
PALATKA        FAIR      64  63  94 SE5       30.09S
MAYPORT NAS    CLEAR     68  60  75 SE13      30.08F
JACKSONVILLE   MOCLDY    59  57  93 CALM      30.10R
JAX NAS        MOCLDY    64  58  80 SE9       30.09S
FERNANDINA BEA FAIR      70  61  73 SE7       30.09R
ST AUGUSTINE   CLEAR     68  61  78 SE10      30.10F

STATION/POSITION SKY/WX   TEMP    WIND        PRES    WAVE   SWELL
                          AIR SEA DIR/SP/G            HT/PER HT/PER
                          (F)     (DEG/KT/KT) (MB)    (FT/S) (FT/S)
SHELL POINT      NOT AVBL
KEATON BEACH               59      90/ 11/ 13 1017.1F
CEDAR KEY                  62     110/ 10/ 11 1018.3S
FERNANDINA                 67 66  130/  5/  9 1019.0R
30.7N   81.3W                 65                N/A     4/ 6
MAYPORT                    68 66  120/  8/ 13 1018.6F
31.4N   80.9W              66 65  100/ 14/ 16 1019.6F   4/ 5   2/ 7
ST AUGUSTINE               68 66  120/ 10/ 10 1020.2F

$$
FLZ040-043>046-052-053-057-058-063-144-041400-
INTERIOR CENTRAL FLORIDA

CITY           SKY/WX    TMP DP  RH WIND       PRES   REMARKS
OCALA          CLEAR     57  52  82 CALM      30.09R
THE VILLAGES     N/A     64  64 100 MISG      29.98F
LEESBURG       CLEAR     65  60  84 SE10      30.09S
SANFORD        SUNNY     62  58  86 SE5       30.10S
ORLANDO EXEC   SUNNY     62  59  90 E3        30.10S
ORLANDO INTL   MOSUNNY   64  60  87 E5        30.10S
KISSIMMEE      SUNNY     64  62  93 E5        30.11S
WINTER HAVEN   MOSUNNY   64  60  87 E7        30.10S
LAKELAND       CLEAR     63  61  94 E6        30.09R
BARTOW         SUNNY     63  63 100 E10       30.09S
OKEECHOBEE     SUNNY     66  61  82 E5        30.09S

$$
FLZ041-047-054-059-064-141-147-041400-
EAST CENTRAL FLORIDA

CITY           SKY/WX    TMP DP  RH WIND       PRES   REMARKS
DAYTONA BEACH  PTCLDY    67  62  84 E5        30.10F
DELAND         CLEAR     57  54  88 CALM      30.10S
NEW SMYRNA BEA SUNNY     70  61  73 E6        30.11R
JFK SPACE CTR  SUNNY     67  62  82 SE3       30.09S
CAPE CANAVERAL SUNNY     70  62  74 SE9       30.09S
PATRICK AFB    SUNNY     73  64  73 E12       30.09S
MELBOURNE      MOSUNNY   72  63  73 E8        30.10R
VERO BEACH     MOSUNNY   73  63  70 E6        30.10R
FT PIERCE      PTSUNNY   73  63  70 E10       30.09R
STUART         PTSUNNY   77  64  65 SE10      30.10R

STATION/POSITION SKY/WX   TEMP    WIND        PRES    WAVE   SWELL
                          AIR SEA DIR/SP/G            HT/PER HT/PER
                          (F)     (DEG/KT/KT) (MB)    (FT/S) (FT/S)
TRIDENT PIER               71 72   80/  5/  6 1019.1R
28.4N   80.5W                 71                N/A     3/ 4

$$
FLZ050-056-061-142-242-148-248-149-249-151-251-155-255-
160-260-041400-
WEST CENTRAL FLORIDA

CITY           SKY/WX    TMP DP  RH WIND       PRES   REMARKS
CRYSTAL RIVER  FAIR      63  57  82 E5        30.07S
INVERNESS      FAIR      61  59  94 E3        30.08S
BROOKSVILLE      N/A    N/A N/A N/A E12       30.07
CLEARWATER AIR MOCLDY    64  61  88 SE12G17   30.05S
ST PETE CLEARW CLEAR     67  61  81 SE13      30.06R
TAMPA INTL     PTCLDY    68  59  73 E8        30.06F
TAMPA EXEC     CLEAR     63  59  88 E3        30.08S
PLANT CITY     CLEAR     66  63  88 E7        30.10R
MACDILL AFB    CLEAR     65  63  93 SE12      30.06R
PETER O KNIGHT CLEAR     68  63  83 E13       30.06F
ST PETERSBURG  CLOUDY    66  62  87 E12       30.06R
SARASOTA       CLEAR     67  60  78 E12       30.05R
VENICE         FAIR      66  63  88 E10       30.06S

STATION/POSITION SKY/WX   TEMP    WIND        PRES    WAVE   SWELL
                          AIR SEA DIR/SP/G            HT/PER HT/PER
                          (F)     (DEG/KT/KT) (MB)    (FT/S) (FT/S)
CLEARWATER BEACH           68 67  120/  9/ 15 1017.4R
MIDDLE TAMPA BAY           66     120/ 13/ 15 1018.2R
VENICE                     64 69   80/  6/  9 1017.4R

$$
FLZ066-069-070-075>078-162-262-165-265-041400-
SOUTHWEST FLORIDA AND KEYS

CITY           SKY/WX    TMP DP  RH WIND       PRES   REMARKS
PUNTA GORDA    SUNNY     64  61  90 E6        30.08S
FT MYERS       SUNNY     68  64  87 E9        30.05S
SOUTHWEST INTL SUNNY     66  63  90 E9        30.06R
NAPLES         SUNNY     68  64  87 E8        30.06R
MARCO ISLAND   SUNNY     64  63  94 NE6       30.06R
MARATHON       SUNNY     79  71  76 E7        30.02R
KEY WEST NAS   MOSUNNY   77  71  82 E13       30.01R
KEY WEST INTL  SUNNY     78  73  84 E14       30.02R

STATION/POSITION SKY/WX   TEMP    WIND        PRES    WAVE   SWELL
                          AIR SEA DIR/SP/G            HT/PER HT/PER
                          (F)     (DEG/KT/KT) (MB)    (FT/S) (FT/S)
NAPLES                        71              1017.6R
26.0N   85.6W              76 77  120/ 21/ 25 1014.5    5/ 6
DRY TORTUGAS               76      90/ 18/ 20 1015.8R
SAND KEY                   78     120/ 19/ 21 1016.6R
LONG KEY                   77 76  100/ 13/ 14 1016.8R
MOLASSES REEF              77 79  110/ 17/ 18 1017.1R

$$
FLZ067-068-071>074-168-172>174-041400-
SOUTHEAST FLORIDA

CITY           SKY/WX    TMP DP  RH WIND       PRES   REMARKS
W PALM BEACH   PTSUNNY   74  63  68 E13       30.09R
BOCA RATON     PTSUNNY   75  66  73 E14G22    30.07R
FT LAUDER-EXEC CLOUDY    75  66  73 E16       30.06R
FT LAUDERDALE  PTSUNNY   76  67  73 E16       30.05R
POMPANO BEACH  PTSUNNY   75  67  76 E15       30.06R
PEMBROKE PINES CLOUDY    76  67  73 SE8       30.07R
OPA LOCKA      PTSUNNY   76  68  76 SE8       30.06S
MIAMI          PTSUNNY   75  67  76 E9        30.06R
WEST KENDALL   PTSUNNY   76  68  76 E14       30.05S
HOMESTEAD      PTSUNNY   75  70  82 E10       30.04S

STATION/POSITION SKY/WX   TEMP    WIND        PRES    WAVE   SWELL
                          AIR SEA DIR/SP/G            HT/PER HT/PER
                          (F)     (DEG/KT/KT) (MB)    (FT/S) (FT/S)
PORT EVERGLADES            77      80/ 10/ 15 1017.7R
VIRGINIA KEY               76 82   90/ 12/ 15 1018.0R
LAKE WORTH                 75 77   90/ 14/ 20 1018.1R
FOWEY ROCKS                76 77   90/ 18/ 20 1018.1R

$$




USA.gov is the U.S. government's official web portal to all federal, state and local government web resources and services.